This is the latest recevied weather packets stored in our database for station/object KY4LEX. If no packets are shown the sender has not sent any weather packets the latest 1 day(s).
| Time | Temp. | Humidity | Pressure | Rain* | Wind** | Luminosity | Snow |
|---|---|---|---|---|---|---|---|
| 1778072406 | 10° C | 97% | 1016.4 hPa | 0 mm | - | 73 W/m² | - |
| 1778071197 | 9.44° C | 98% | 1015.9 hPa | 0 mm | - | 52 W/m² | - |
| 1778070592 | 9.44° C | 97% | 1015.8 hPa | 0 mm | - | 28 W/m² | - |
| 1778069987 | 9.44° C | 97% | 1015.9 hPa | 0 mm | - | 22 W/m² | - |
| 1778069684 | 9.44° C | 97% | 1015.6 hPa | 0 mm | - | 25 W/m² | - |
| 1778069380 | 9.44° C | 97% | 1015.5 hPa | 0 mm | - | 23 W/m² | - |
| 1778069078 | 9.44° C | 97% | 1015.2 hPa | 0 mm | - | 24 W/m² | - |
| 1778066659 | 10° C | 97% | 1014.9 hPa | 0 mm | - | 12 W/m² | - |
| 1778066356 | 10° C | 97% | 1014.5 hPa | 0 mm | - | 13 W/m² | - |
| 1778066054 | 10° C | 97% | 1014.6 hPa | 0 mm | - | 11 W/m² | - |
| 1778064841 | 10.56° C | 97% | 1013.9 hPa | 0 mm | - | 3 W/m² | - |
| 1778064236 | 10.56° C | 97% | 1013.9 hPa | 0 mm | - | 1 W/m² | - |
| 1778063631 | 10.56° C | 97% | 1013.7 hPa | 0 mm | - | 0 W/m² | - |
| 1778063328 | 10.56° C | 97% | 1013.8 hPa | 0 mm | - | 0 W/m² | - |
| 1778063026 | 11.11° C | 97% | 1013.5 hPa | 0 mm | - | 0 W/m² | - |
| 1778062723 | 11.11° C | 97% | 1013.4 hPa | 0 mm | - | 0 W/m² | - |
| 1778062419 | 11.11° C | 97% | 1013.5 hPa | 0 mm | - | 0 W/m² | - |
| 1778062117 | 11.67° C | 98% | 1013.2 hPa | 0 mm | - | 0 W/m² | - |
| 1778061815 | 12.22° C | 98% | 1012.9 hPa | 1.78 mm | - | 0 W/m² | - |
| 1778061513 | 12.78° C | 98% | 1012.7 hPa | 1.78 mm | - | 0 W/m² | - |
| 1778061210 | 13.89° C | 99% | 1012.5 hPa | 0 mm | - | 0 W/m² | - |
| 1778060000 | 13.89° C | 98% | 1012.2 hPa | 4.32 mm | - | 0 W/m² | - |
| 1778059698 | 13.89° C | 99% | 1012.4 hPa | 6.1 mm | - | 0 W/m² | - |
| 1778058488 | 14.44° C | 99% | 1012.6 hPa | 12.7 mm | - | 0 W/m² | - |
| 1778057881 | 15° C | 99% | 1012.3 hPa | 6.1 mm | - | 0 W/m² | - |
* Rain latest hour (hover to see other rain measurements)
** Current wind speed in m/s (hover to see current wind gust speed)